Flag for U.S.A. Weather past 2 weeks in Baton Rouge, Louisiana, U.S.A.

Now
47 °F

Sunny.


Feels Like: 43 °F
Forecast: 44 / 60 °F
Wind: 7 mph from Northwest

Location: Baton Rouge Metropolitan - Ryan Field

Current Time: Jan 26, 2015 at 9:08:28 AM

Latest Report: Jan 26, 2015 at 7:53 AM


Visibility: 10 mi

Pressure: 30.15 "Hg

Humidity: 59%

Dew point: 33 °F

Location of Baton RougeLocation

Historic Weather in Baton Rouge — Graph

°F

Baton Rouge temperature yesterday

Maximum temperature yesterday: 69 °F (at 2:53 PM)
Minimum temperature yesterday: 39 °F (at 5:53 AM)
Average temperature yesterday: 54 °F

Past Weeks' High & Low Weather Summary

 TemperatureHumidityPressure
High73 °F (Jan 20, 2:53 PM)97% (Jan 11, 9:53 PM)30.37 "Hg (Jan 11, 9:53 PM)
Low31 °F (Jan 16, 3:53 AM)19% (Jan 18, 2:53 PM)29.85 "Hg (Jan 25, 4:53 PM)
Average49 °F73%30.15 "Hg
* Reported Jan 11 7:53 AM — Jan 26 7:53 AM, Baton Rouge, Weather by CustomWeather, © 2014

Note: Actual official high and low records may vary slightly from our data, if they occured in-between our weather recording intervals... More about our weather records

Advertising

Baton Rouge weather history for previous 24 hours

 ConditionsComfort  
Time TempWeatherWind HumidityBarometerVisibility
7:53 AM
Jan 26
47 °FSunny.7 mph59%30.15 "Hg10 mi
6:53 AM46 °FClear.6 mph58%30.12 "Hg10 mi
5:53 AM47 °FClear.7 mph56%30.09 "Hg10 mi
4:53 AM49 °FClear.8 mph50%30.06 "Hg10 mi
3:53 AM51 °FClear.9 mph46%30.05 "Hg10 mi
2:53 AM52 °FClear.13 mph45%30.05 "Hg10 mi
1:53 AM53 °FClear.9 mph43%30.03 "Hg10 mi
12:53 AM53 °FClear.9 mph43%30.03 "Hg10 mi
11:53 PM
Jan 25
55 °FClear.12 mph40%30.00 "Hg10 mi
10:53 PM54 °FClear.8 mph43%29.99 "Hg10 mi
9:53 PM56 °FClear.9 mph46%29.97 "Hg10 mi
8:53 PM53 °FClear.7 mph69%29.96 "Hg10 mi
7:53 PM53 °FClear.6 mph69%29.92 "Hg10 mi
6:53 PM57 °FClear.9 mph60%29.91 "Hg10 mi
5:53 PM60 °FClear.10 mph52%29.87 "Hg10 mi
4:53 PM64 °FSunny.16 mph40%29.85 "Hg10 mi
3:53 PM67 °FSunny.23 mph35%29.87 "Hg10 mi
2:53 PM69 °FSunny.23 mph31%29.88 "Hg10 mi
1:53 PM68 °FSunny.16 mph31%29.88 "Hg10 mi
12:53 PM66 °FSunny.18 mph36%29.92 "Hg10 mi
11:53 AM65 °FSunny.15 mph36%29.95 "Hg10 mi
10:53 AM61 °FSunny.14 mph44%29.99 "Hg10 mi
9:53 AM57 °FSunny.9 mph60%30.01 "Hg10 mi
Weather by CustomWeather, © 2014

See weather overviewHow to use our weather pages